STARLINK-3005, 48881

Orbit data source: Space-Track

STARLINK-3005, 48881 is a payload satellite owned by SpaceX/Seattle (US) in SSO that was launched on Wed, 30 Jun 2021 UTC via an FALCON 9 launch vehicle from the Air Force Eastern Test Range (AFETR). Payload-class satellites include a variety of spacecraft equipped with specific instruments for various scientific and technological missions. These include communications satellites like Starlink; space stations such as the ISS; scientific satellites like the Hubble; Earth observation satellites from companies like Planet Labs, Umbra, and HawkEye 360; GPS; miniature CubeSats for education and research; and military/defense satellites.

Loading next visibility...
Identifier
48881, 2021-059C
Orbit
SSO
Country
Flag of USUS
Related business
Manufacturer
SpaceX/Seattle
Mission
Operational Commercial Communications
Bus & Motor
STARLINK, Unknown motor
Mass
260 kg wet, ~248 kg dry
Launch date (UTC)
2021-06-30 (4 years ago)
Launch vehicle
FALCON 9
Launch site
Air Force Eastern Test Range (AFETR)
Object type
Payload
Rocket body
Debris
Shape & HBR
Box + 1 Pan, 10.1 m
Radar Cross Section
13.562 m², Large (>1 m²)

Expand to show TLE details & history
Last TLE update: 19 hours ago

TLE from 19 hours ago
0 STARLINK-3005
1 48881U 21059C   25314.77437732  .00003775  00000-0  29828-3 0  9995
2 48881  97.6618  77.9493 0001693 183.4102 176.7111 15.01264813240961
Epoch: 2025-11-10T18:35Z
TLE epoch observation values (Epoch: 2025-11-10T18:35:06.200Z)
Latitude
-0.00002°
Longitude
109.00301°
Altitude
567.226 km
Speed
7.577 km/s
True Right ascension
05h 11m 47s
True Declination
0° 00' 00"
Sunlit
Object was in full shadow at epoch
Visualization orbit readout
Latitude
Unknown
Longitude
Unknown
Altitude
Unknown
Speed
Unknown
Apparent Right ascension
Unknown
Apparent Declination
Unknown
Sunlit
N/A
Visualization observer readout
Local Sidereal Time
10:03:07
Azimuth
Unknown
Elevation
Unknown
Doppler factor
Unknown
Orbital elements
Apogee altitude
561.172 km
Perigee altitude
558.822 km
Semi-major axis
6,938.134 km
Eccentricity
0.00017
Inclination
97.6618°
RAAN
77.9493°
Arg. of periapsis
183.4102°
True anomaly
176.71221°
Mean anomaly
176.7111°
Eccentric anomaly
176.71166°
Mean motion
3.7556 °/min
Orbital period
95.86 mins
BSTAR
0.00029828
Loading maneuver chart data...
Computing Atmospheric mass density...

Documentation

Showing up to 5 results
|